{"data":{"norad_id":60389,"epoch":"2026-05-25T04:24:13.702752Z","epoch_age_seconds":52431,"freshness":"FRESH","line1":"1 60389U 24140L   26145.18349193  .00000035  00000+0  34878-4 0  9994","line2":"2 60389  88.9654 282.2096 0016290  87.9255 272.3762 13.51005998 89187","mean_motion":13.51005998,"eccentricity":0.001629,"inclination_deg":88.9654,"raan_deg":282.2096,"arg_perigee_deg":87.9255,"mean_anomaly_deg":272.3762,"bstar":3.4878e-5,"rev_number":8918,"period_min":106.5872395927,"perigee_km":1056.4288759853,"apogee_km":1080.6902133278,"semimajor_km":7446.6965446566,"source":"CELESTRAK","updated_at":"2026-05-25T13:38:02.042026Z"}}